[[{"header":{"parameterUnit":"m.s-1","parameterCategory":1,"la1":30.2991,"la2":30.254,"lo1":-89.0895,"lo2":-89.0444,"dy":0.0017,"dx":0.0017,"nx":28,"ny":28,"refTime":"2023-09-28T21:00:00:Z","depth":0,"parameterNumber":2,"parameterNumberName":"U-component_of_WINDS"},"data":[0,0,0,0,0,0,0,0,0,0,0,0,0,0,0,0,0,0,0,0,0,0,0,0,0,0,0,0,0,0,0,0,0,0,0,0,0,0,0,0,0,0,0,0,0,0,0,0,0,0,0,0,0,0,0,0,0,0,-2.4922,-2.4921,0,-2.4886,-2.4886,-2.4885,-2.4808,-2.4806,-2.4805,-2.4803,-2.4769,-2.4769,-2.477,0,0,0,0,0,0,0,0,0,0,0,0,0,-2.4927,-2.4927,-2.4922,-2.4921,-2.4921,-2.4886,-2.4886,-2.4885,-2.4808,-2.4806,-2.4804,-2.4802,-2.4769,-2.4769,-2.477,0,0,0,0,0,0,0,0,0,0,0,0,0,-2.4911,-2.4927,-2.4922,-2.4878,-2.4874,-2.4886,-2.4886,-2.4885,-2.4808,-2.4806,-2.4804,-2.4801,-2.4768,-2.4769,-2.477,-2.4823,0,0,-2.4773,-2.4773,0,0,0,0,0,0,0,0,-2.4912,-2.4911,-2.4885,-2.4881,-2.4876,-2.4849,-2.4875,-2.4864,-2.4809,-2.4833,-2.4803,-2.48,-2.4798,-2.4796,-2.4794,-2.4821,-2.482,-2.4773,-2.4773,-2.4774,-2.4774,0,0,0,0,0,0,0,-2.4913,-2.4912,-2.4908,-2.4885,-2.488,-2.4862,-2.4857,-2.4873,-2.4829,-2.4831,-2.4825,-2.4822,-2.4795,-2.4794,-2.4793,-2.4819,-2.4773,-2.4773,-2.4774,-2.4774,-2.4892,-2.4894,0,0,0,0,0,0,-2.492,-2.4914,-2.4909,-2.4907,-2.4889,-2.4863,-2.4858,-2.486,-2.4829,-2.4822,-2.4824,-2.4819,-2.4794,-2.4792,-2.4792,-2.4854,-2.4774,-2.4774,-2.4775,-2.4889,-2.4893,-2.4895,0,0,0,0,0,0,-2.4921,-2.4921,-2.491,-2.4909,-2.4906,-2.4866,-2.4869,-2.4861,-2.486,-2.4824,-2.4816,-2.4831,-2.4792,-2.479,-2.4816,-2.4852,-2.4775,-2.4776,-2.4886,-2.489,-2.4894,-2.4979,0,0,0,0,0,0,-2.4921,-2.4921,-2.494,-2.491,-2.4906,-2.4935,-2.4871,-2.4862,-2.4861,-2.4854,-2.4828,-2.4821,-2.479,-2.4816,-2.4817,-2.4852,-2.4776,-2.4883,-2.4888,-2.4893,-2.4973,-2.4985,-2.4996,0,0,0,0,0,-2.4922,-2.4965,-2.4941,-2.4941,-2.4929,-2.4937,-2.4935,-2.4897,-2.4864,-2.4884,-2.4861,-2.4822,-2.4847,-2.4819,-2.482,-2.4855,-2.4881,-2.4887,-2.4892,-2.4968,-2.4983,-2.4996,0,0,0,0,0,0,-2.5,-2.496,-2.4933,-2.4968,-2.4957,-2.4924,-2.4947,-2.4914,-2.4912,-2.4905,-2.4859,-2.4854,-2.4887,-2.4873,-2.4842,-2.4907,-2.4858,-2.4865,-2.4915,-2.4929,-2.494,-2.4944,-2.4777,0,0,0,0,0,-2.5022,-2.5031,-2.4995,-2.5029,-2.5025,-2.4987,-2.4989,-2.4961,-2.4948,-2.4943,-2.4922,-2.4911,-2.4917,-2.4922,-2.4925,-2.497,-2.4965,-2.4995,-2.5007,-2.5016,-2.5023,-2.505,-2.5064,-2.4915,-2.4915,-2.4915,0,0,-2.5066,-2.5045,-2.5054,-2.5045,-2.5033,-2.5045,-2.4984,-2.4998,-2.5008,-2.4945,-2.4969,-2.4954,-2.4939,-2.4976,-2.4991,-2.4966,-2.5063,-2.5024,-2.5032,-2.5033,-2.5057,-2.5072,-2.5084,-2.4919,-2.4918,-2.4917,0,0,-2.5153,-2.5137,-2.5165,-2.5155,-2.5138,-2.5113,-2.512,-2.5092,-2.508,-2.5103,-2.5058,-2.5069,-2.5078,-2.5071,-2.5069,-2.5156,-2.5122,-2.5159,-2.522,-2.5246,-2.5258,-2.5268,-2.5303,-2.5316,-2.5165,-2.5165,-2.5165,0,-2.5211,-2.5227,-2.5184,-2.5203,-2.5202,-2.5145,-2.5175,-2.5167,-2.5152,-2.5154,-2.5125,-2.5139,-2.5124,-2.5161,-2.5183,-2.5181,-2.519,-2.5162,-2.526,-2.527,-2.5279,-2.5311,-2.5324,-2.517,-2.517,-2.5169,-2.5169,0,-2.53,-2.5312,-2.5337,-2.5325,-2.5326,-2.535,-2.5313,-2.5319,-2.5292,-2.5271,-2.5297,-2.5278,-2.5278,-2.5284,-2.5257,-2.5318,-2.5303,-2.5268,-2.5218,-2.5298,-2.5328,-2.534,-2.5177,-2.5175,-2.5174,-2.5173,0,0,-2.5436,-2.5401,-2.5411,-2.5406,-2.5384,-2.5393,-2.5416,-2.5416,-2.5424,-2.5416,-2.5436,-2.5447,-2.5415,-2.5413,-2.5384,-2.5407,-2.5482,-2.5369,-2.5368,-2.5394,-2.5553,-2.5581,-2.5596,-2.5459,-2.5461,-2.5462,-2.5555,0,-2.552,-2.5557,-2.552,-2.5565,-2.5577,-2.5525,-2.5545,-2.5535,-2.5516,-2.5525,-2.5505,-2.5515,-2.547,-2.5469,-2.5489,-2.5469,-2.5514,-2.5461,-2.548,-2.5481,-2.5488,-2.5611,-2.5641,-2.5729,-2.5566,-2.5568,-2.5569,0,-2.5624,-2.5621,-2.5667,-2.5645,-2.5649,-2.5668,-2.5667,-2.5675,-2.5663,-2.5648,-2.5647,-2.5613,-2.5636,-2.5586,-2.5619,-2.5584,-2.559,-2.5581,-2.5584,-2.5586,-2.5532,-2.562,-2.5756,-2.577,-2.5587,-2.5585,-2.5584,0,-2.5723,-2.5731,-2.576,-2.5757,-2.5731,-2.5746,-2.5736,-2.5722,-2.5725,-2.5724,-2.5727,-2.5729,-2.5731,-2.5734,-2.5702,-2.5668,-2.5741,-2.5687,-2.5732,-2.5733,-2.5751,-2.5751,-2.5893,-2.575,-2.575,-2.5749,-2.5749,0,-2.5822,-2.5853,-2.5805,-2.5823,-2.5857,-2.5816,-2.5851,-2.5836,-2.5824,-2.5841,-2.5795,-2.5811,-2.5767,-2.578,-2.5755,-2.5789,-2.5789,-2.5779,-2.5773,-2.5785,-2.5787,-2.579,-2.5784,-2.5753,-2.5752,-2.5751,-2.5751,0,-2.5939,-2.5907,-2.5936,-2.591,-2.5904,-2.5931,-2.5909,-2.5926,-2.5905,-2.5926,-2.5929,-2.5896,-2.5909,-2.5877,-2.5885,-2.5868,-2.5917,-2.5899,-2.5922,-2.5917,-2.5965,-2.5962,-2.6115,-2.6135,-2.5977,-2.5979,-2.598,0,-2.6006,-2.6029,-2.6005,-2.6013,-2.6005,-2.6018,-2.6021,-2.5982,-2.5988,-2.5978,-2.5997,-2.6006,-2.6011,-2.6035,-2.6013,-2.602,-2.6004,-2.6057,-2.6004,-2.6017,-2.6008,-2.6009,-2.6013,-2.6069,-2.6071,-2.6072,-2.6073,0,-2.613,-2.6113,-2.612,-2.6122,-2.6128,-2.6127,-2.6124,-2.6133,-2.6091,-2.6101,-2.6113,-2.6117,-2.6126,-2.6137,-2.6139,-2.613,-2.6097,-2.609,-2.6101,-2.6115,-2.6128,-2.6125,-2.5955,-2.6087,-2.6086,-2.6085,-2.6084,-2.6083,-2.6225,-2.6245,-2.6232,-2.6242,-2.6235,-2.6234,-2.625,-2.6231,-2.624,-2.6244,-2.6221,-2.624,-2.623,-2.623,-2.6225,-2.6241,-2.6217,-2.6232,-2.6236,-2.6242,-2.6251,-2.6124,-2.624,-2.624,-2.624,-2.6239,-2.6239,0,-2.635,-2.6339,-2.6348,-2.6346,-2.6354,-2.632,-2.6315,-2.6326,-2.6342,-2.6336,-2.6343,-2.6359,-2.637,-2.6349,-2.6358,-2.6374,-2.6359,-2.6378,-2.6378,-2.6378,-2.627,-2.6261,-2.6391,-2.639,-2.639,-2.639,-2.639,-2.639,-2.6415,-2.6447,-2.643,-2.6459,-2.6449,-2.6466,-2.6467,-2.6467,-2.6462,-2.6482,-2.6491,-2.6477,-2.6467,-2.6474,-2.6484,-2.6477,-2.6484,-2.6509,-2.6498,-2.6399,-2.6384,-2.637,-2.6362,-2.651,-2.651,-2.6605,-2.6606,-2.6606]},{"header":{"parameterUnit":"m.s-1","parameterCategory":1,"la1":30.2991,"la2":30.254,"lo1":-89.0895,"lo2":-89.0444,"dy":0.0017,"dx":0.0017,"nx":28,"ny":28,"refTime":"2023-09-28T21:00:00:Z","depth":0,"parameterNumber":3,"parameterNumberName":"V-component_of_WINDS"},"data":[0,0,0,0,0,0,0,0,0,0,0,0,0,0,0,0,0,0,0,0,0,0,0,0,0,0,0,0,0,0,0,0,0,0,0,0,0,0,0,0,0,0,0,0,0,0,0,0,0,0,0,0,0,0,0,0,0,0,1.5994,1.5994,0,1.6006,1.6006,1.6006,1.6012,1.6012,1.6012,1.6012,1.6023,1.6023,1.6024,0,0,0,0,0,0,0,0,0,0,0,0,0,1.5973,1.5974,1.5994,1.5994,1.5994,1.6006,1.6006,1.6006,1.6012,1.6012,1.6012,1.6012,1.6023,1.6023,1.6024,0,0,0,0,0,0,0,0,0,0,0,0,0,1.5984,1.5974,1.5994,1.5998,1.5999,1.6006,1.6006,1.6006,1.6012,1.6012,1.6012,1.6012,1.6023,1.6023,1.6024,1.6026,0,0,1.6025,1.6025,0,0,0,0,0,0,0,0,1.5983,1.5984,1.5998,1.5998,1.5999,1.6008,1.6003,1.6013,1.6012,1.6007,1.6012,1.6012,1.6018,1.6019,1.6021,1.6027,1.6027,1.6025,1.6025,1.6026,1.6026,0,0,0,0,0,0,0,1.5982,1.5984,1.5998,1.5998,1.5998,1.5999,1.6001,1.6005,1.6012,1.6008,1.6008,1.6009,1.6018,1.6021,1.6021,1.6028,1.6025,1.6026,1.6026,1.6026,1.6035,1.6035,0,0,0,0,0,0,1.5981,1.5983,1.5998,1.5999,1.5991,1.6,1.6001,1.6005,1.6012,1.6013,1.6009,1.601,1.602,1.6021,1.6022,1.6024,1.6026,1.6026,1.6026,1.6035,1.6035,1.6035,0,0,0,0,0,0,1.5981,1.5982,1.5998,1.5991,1.5993,1.6,1.6004,1.6005,1.6007,1.6014,1.6015,1.6011,1.602,1.6021,1.6025,1.6025,1.6026,1.6027,1.6035,1.6035,1.6035,1.603,0,0,0,0,0,0,1.598,1.5982,1.5984,1.5991,1.5993,1.6001,1.6004,1.6005,1.6008,1.6009,1.6015,1.6016,1.602,1.6024,1.6025,1.6025,1.6027,1.6035,1.6035,1.6035,1.603,1.603,1.603,0,0,0,0,0,1.5979,1.5982,1.5984,1.5986,1.5996,1.6001,1.6003,1.6007,1.6008,1.6009,1.6013,1.6016,1.6025,1.6025,1.6026,1.6026,1.6035,1.6035,1.6035,1.6031,1.603,1.603,0,0,0,0,0,0,1.5975,1.5983,1.5985,1.5991,1.5995,1.6002,1.6004,1.6007,1.6011,1.6011,1.6016,1.6018,1.6021,1.6024,1.6024,1.6028,1.603,1.603,1.6026,1.6026,1.6026,1.6025,1.6027,0,0,0,0,0,1.5974,1.5979,1.5986,1.599,1.5992,1.5998,1.6,1.6003,1.6008,1.601,1.6014,1.6018,1.6022,1.6024,1.6028,1.6031,1.6032,1.6031,1.6031,1.6031,1.6031,1.6032,1.6031,1.6034,1.6034,1.6034,0,0,1.5973,1.5979,1.5981,1.5989,1.5993,1.5996,1.5999,1.6003,1.6006,1.601,1.6014,1.6017,1.6022,1.6025,1.6027,1.6028,1.603,1.6031,1.603,1.6031,1.6031,1.6031,1.6031,1.6034,1.6034,1.6034,0,0,1.5974,1.5978,1.5982,1.5985,1.5991,1.5995,1.5996,1.6002,1.6004,1.6008,1.6012,1.6014,1.6021,1.6024,1.6026,1.6026,1.6028,1.6027,1.6025,1.6026,1.6025,1.6025,1.6024,1.6024,1.6027,1.6027,1.6027,0,1.5972,1.5978,1.5983,1.5987,1.5989,1.5994,1.5997,1.6,1.6006,1.6008,1.6009,1.6016,1.602,1.6023,1.6023,1.6025,1.6025,1.6026,1.6025,1.6025,1.6025,1.6024,1.6024,1.6027,1.6027,1.6027,1.6027,0,1.5975,1.5979,1.5981,1.5987,1.599,1.5993,1.5998,1.6,1.6003,1.6006,1.6009,1.6013,1.6018,1.6019,1.6021,1.6022,1.6022,1.6024,1.6026,1.6024,1.6023,1.6023,1.6026,1.6026,1.6026,1.6026,0,0,1.5974,1.5982,1.5982,1.5985,1.5991,1.5994,1.5996,1.6001,1.6002,1.6006,1.6008,1.6012,1.6014,1.6016,1.6019,1.602,1.6018,1.6021,1.6021,1.602,1.6018,1.6017,1.6016,1.602,1.602,1.602,1.6018,0,1.5974,1.598,1.5984,1.5988,1.5991,1.5995,1.5997,1.6,1.6003,1.6005,1.6008,1.6011,1.6013,1.6015,1.6015,1.6018,1.6018,1.6018,1.6021,1.6021,1.6019,1.6016,1.6015,1.6013,1.6018,1.6018,1.6017,0,1.5976,1.598,1.5984,1.5989,1.599,1.5992,1.5996,1.5998,1.6002,1.6004,1.6006,1.6009,1.6011,1.6012,1.6014,1.6015,1.6016,1.6017,1.6017,1.6017,1.6019,1.6016,1.6012,1.6012,1.6017,1.6017,1.6017,0,1.5974,1.598,1.5983,1.5985,1.5991,1.5992,1.5994,1.5998,1.5999,1.6002,1.6003,1.6006,1.6008,1.601,1.6012,1.6013,1.6014,1.6016,1.6015,1.6015,1.6015,1.6015,1.6011,1.6016,1.6016,1.6016,1.6016,0,1.5974,1.5976,1.5982,1.5984,1.5986,1.599,1.5991,1.5994,1.5997,1.5999,1.6002,1.6003,1.6007,1.6009,1.6011,1.6012,1.6013,1.6014,1.6014,1.6013,1.6013,1.6014,1.6014,1.6016,1.6016,1.6016,1.6016,0,1.5972,1.5976,1.5979,1.5984,1.5985,1.5986,1.599,1.5991,1.5994,1.5996,1.5997,1.6,1.6002,1.6005,1.6008,1.601,1.601,1.6011,1.6009,1.6009,1.6008,1.6008,1.6004,1.6004,1.601,1.6009,1.6009,0,1.5972,1.5974,1.5978,1.598,1.5982,1.5984,1.5986,1.599,1.5991,1.5994,1.5995,1.5997,1.5999,1.6002,1.6005,1.6007,1.6007,1.6006,1.6008,1.6006,1.6007,1.6006,1.6006,1.6006,1.6006,1.6006,1.6005,0,1.5971,1.5972,1.5975,1.5978,1.598,1.5982,1.5985,1.5986,1.5989,1.5991,1.5993,1.5994,1.5997,1.5999,1.6001,1.6002,1.6004,1.6005,1.6005,1.6004,1.6002,1.6002,1.6008,1.6005,1.6005,1.6005,1.6005,1.6005,1.5969,1.5971,1.5974,1.5976,1.5978,1.598,1.5982,1.5984,1.5986,1.5988,1.599,1.5992,1.5994,1.5997,1.5998,1.5999,1.6,1.6,1.6,1.6,1.5999,1.6002,1.6,1.6,1.6,1.6,1.6,0,1.5968,1.597,1.5972,1.5975,1.5977,1.5979,1.5981,1.5982,1.5984,1.5986,1.5987,1.5989,1.599,1.5993,1.5994,1.5994,1.5995,1.5995,1.5994,1.5995,1.5998,1.5998,1.5994,1.5994,1.5994,1.5994,1.5994,1.5994,1.5968,1.5969,1.5971,1.5973,1.5975,1.5977,1.5978,1.598,1.5981,1.5983,1.5984,1.5986,1.5988,1.5989,1.599,1.5991,1.5991,1.599,1.5991,1.5994,1.5994,1.5995,1.5995,1.599,1.599,1.5987,1.5987,1.5987]}]]